TimeCST,TemperatureF,Dew PointF,Humidity,Sea Level PressureIn,VisibilityMPH,Wind Direction,Wind SpeedMPH,Gust SpeedMPH,PrecipitationIn,Events,Conditions,WindDirDegrees,DateUTC
12:55 AM,60.4,60.4,100,29.90,10.0,South,11.5,-,,,Scattered Clouds,180,2012-12-03 06:55:00
1:55 AM,62.2,61.9,99,29.88,10.0,South,13.8,-,,,Clear,190,2012-12-03 07:55:00
2:55 AM,63.0,62.6,99,29.86,10.0,South,15.0,-,,,Clear,190,2012-12-03 08:55:00
3:55 AM,63.0,62.4,98,29.84,10.0,South,19.6,25.3,,,Clear,190,2012-12-03 09:55:00
4:55 AM,62.4,61.9,98,29.82,10.0,South,18.4,26.5,,,Clear,180,2012-12-03 10:55:00
5:55 AM,63.1,61.3,94,29.81,10.0,South,21.9,26.5,,,Clear,180,2012-12-03 11:55:00
6:55 AM,63.5,61.2,92,29.80,10.0,South,19.6,28.8,,,Clear,180,2012-12-03 12:55:00
7:55 AM,63.3,61.2,93,29.80,10.0,South,20.7,-,N/A,,Clear,190,2012-12-03 13:55:00
8:55 AM,65.5,61.3,86,29.80,10.0,South,23.0,29.9,N/A,,Scattered Clouds,190,2012-12-03 14:55:00
9:38 AM,68.0,60.8,78,29.81,10.0,SSW,25.3,33.4,N/A,,Mostly Cloudy,200,2012-12-03 15:38:00
9:55 AM,67.5,61.2,80,29.80,10.0,SSW,26.5,35.7,N/A,,Mostly Cloudy,210,2012-12-03 15:55:00
10:55 AM,70.5,60.1,69,29.78,10.0,SSW,31.1,39.1,N/A,,Mostly Cloudy,210,2012-12-03 16:55:00
11:55 AM,72.0,58.5,62,29.75,10.0,SSW,31.1,39.1,N/A,,Scattered Clouds,210,2012-12-03 17:55:00
12:55 PM,73.4,57.9,58,29.77,10.0,SW,24.2,35.7,N/A,,Overcast,230,2012-12-03 18:55:00
1:55 PM,71.4,56.8,60,29.78,10.0,SW,25.3,34.5,N/A,,Overcast,220,2012-12-03 19:55:00
2:55 PM,70.3,57.0,63,29.81,10.0,SW,18.4,28.8,N/A,,Overcast,230,2012-12-03 20:55:00
3:55 PM,69.3,57.2,65,29.82,10.0,SW,16.1,-,N/A,,Overcast,220,2012-12-03 21:55:00
4:55 PM,66.4,57.4,73,29.84,10.0,SW,12.7,-,N/A,,Mostly Cloudy,220,2012-12-03 22:55:00
5:55 PM,67.1,57.4,71,29.86,10.0,SW,12.7,-,N/A,,Overcast,220,2012-12-03 23:55:00
6:55 PM,65.8,57.4,74,29.87,10.0,SW,9.2,-,N/A,,Mostly Cloudy,220,2012-12-04 00:55:00
7:14 PM,66.2,57.2,73,29.90,10.0,NW,15.0,-,N/A,,Light Drizzle,310,2012-12-04 01:14:00
7:22 PM,62.6,51.8,68,29.91,10.0,NW,18.4,23.0,N/A,Rain,Light Rain,320,2012-12-04 01:22:00
7:39 PM,57.2,51.8,82,29.93,8.0,NNW,15.0,-,N/A,Rain,Light Rain,330,2012-12-04 01:39:00
7:55 PM,55.0,52.2,90,29.93,4.0,NNW,16.1,-,0.06,Rain,Heavy Rain,340,2012-12-04 01:55:00
8:07 PM,53.6,53.6,100,29.94,9.0,NNW,11.5,-,N/A,Rain,Light Rain,340,2012-12-04 02:07:00
8:19 PM,53.6,53.6,100,29.95,10.0,NNW,12.7,-,N/A,,Overcast,340,2012-12-04 02:19:00
8:55 PM,53.4,52.2,95,29.96,10.0,North,8.1,-,0.04,,Overcast,350,2012-12-04 02:55:00
9:55 PM,53.4,49.3,86,29.97,10.0,North,8.1,-,N/A,,Scattered Clouds,350,2012-12-04 03:55:00
10:55 PM,52.3,47.1,82,29.99,10.0,North,8.1,-,N/A,,Scattered Clouds,350,2012-12-04 04:55:00
11:55 PM,51.1,46.2,83,30.01,10.0,North,6.9,-,,,Mostly Cloudy,350,2012-12-04 05:55:00